Change the Weather History Date:

Tuesday, December 24, 2013

  Actual Average Record
Temperature  
Mean Temperature 68 °F -  
Max Temperature 76 °F 74 °F 83 °F (2012)
Min Temperature 59 °F 58 °F 51 °F (2008)
Cooling Degree Days 2    
Growing Degree Days 18 (Base 50)    
Moisture  
Dew Point 63 °F    
Average Humidity 81    
Maximum Humidity 94    
Minimum Humidity 62    
Precipitation  
Precipitation 0.00 in - - ()
Sea Level Pressure  
Sea Level Pressure 29.93 in    
Wind  
Wind Speed 5 mph ()    
Max Wind Speed 13 mph    
Max Gust Speed -    
Visibility 7.4 miles    
Events      
Averages and records for this station are not official NWS values.
T = Trace of Precipitation, MM = Missing Value Source: Averaged Metar Reports

Daily Weather History Graph

Daily Weather History Graph

Search for Another Location

Airport or City:

Trip Planner

Search our weather history database for the weather conditions in past years. The results will help you decide how hot, cold, wet, or windy it might be!

Date:

Astronomy

Dec. 24, 2013 Rise Set
Actual Time 5:17 AM SAST 7:42 PM SAST
Civil Twilight 4:48 AM SAST 8:11 PM SAST
Nautical Twilight 4:12 AM SAST 8:47 PM SAST
Astronomical Twilight 3:32 AM SAST 9:27 PM SAST
Moon 11:52 PM SAST (12/24) 11:30 AM SAST (12/24)
Length of Visible Light 15h 23m
Length of Day
14h 25m
Waning Gibbous, 61% of the Moon is Illuminated
Dec 24
Waning Gibbous
Dec 25
Last Quarter
Jan 1
New
Jan 8
First Quarter
Jan 16
Full

Hourly Weather History & Observations

Time (SAST) Temp. Dew Point Humidity Pressure Visibility Wind Dir Wind Speed Gust Speed Precip Events Conditions
12:00 AM 64.4 °F 62.6 °F 94% 30.01 in 6.2 mi Variable 2.3 mph - N/A   Scattered Clouds
1:00 AM 62.6 °F 60.8 °F 94% 29.98 in - NNW 2.3 mph - N/A   Clear
2:00 AM 63 °F 60 °F 86% 29.97 in 6 mi NNW 3.5 mph - -  
2:00 AM 62.6 °F 60.8 °F 94% 29.98 in 6.2 mi North 2.3 mph - N/A   Mostly Cloudy
3:00 AM 62.6 °F 59.0 °F 88% 29.95 in - Calm Calm - N/A   Clear
5:00 AM 59 °F 57 °F 89% 29.94 in 12 mi West 3.5 mph - -   Scattered Clouds
5:00 AM 59.0 °F 57.2 °F 94% 29.92 in 6.2 mi Variable 2.3 mph - N/A   Partly Cloudy
6:00 AM 59.0 °F 57.2 °F 94% 29.92 in 6.2 mi North 3.5 mph - N/A   Partly Cloudy
7:00 AM 64.4 °F 60.8 °F 88% 29.92 in 6.2 mi NW 3.5 mph - N/A   Mostly Cloudy
8:00 AM 68 °F 62 °F 76% 29.94 in 12 mi SE 4.6 mph - -   Mostly Cloudy
8:00 AM 68.0 °F 62.6 °F 83% 29.92 in 6.2 mi SE 4.6 mph - N/A   Mostly Cloudy
9:00 AM 69.8 °F 62.6 °F 78% 29.92 in 6.2 mi SE 6.9 mph - N/A   Mostly Cloudy
10:00 AM 73.4 °F 62.6 °F 69% 29.92 in 6.2 mi Variable 4.6 mph - N/A   Mostly Cloudy
11:00 AM 74 °F 64 °F 63% 29.90 in 12 mi South 6.9 mph - -   Mostly Cloudy
11:00 AM 73.4 °F 64.4 °F 73% 29.89 in 6.2 mi Variable 4.6 mph - N/A   Scattered Clouds
12:00 PM 75.2 °F 64.4 °F 69% 29.89 in 6.2 mi SSE 10.4 mph - N/A   Scattered Clouds
1:00 PM 75.2 °F 64.4 °F 69% 29.89 in 6.2 mi SSE 10.4 mph - N/A   Scattered Clouds
2:00 PM 75 °F 65 °F 62% 29.87 in 12 mi SSE 12.7 mph - -   Mostly Cloudy
2:00 PM 75.2 °F 64.4 °F 69% 29.89 in 6.2 mi SSE 11.5 mph - N/A   Mostly Cloudy
3:00 PM 73.4 °F 64.4 °F 73% 29.89 in 6.2 mi South 10.4 mph - N/A   Mostly Cloudy
4:00 PM 71.6 °F 64.4 °F 78% 29.89 in 6.2 mi SSE 10.4 mph - N/A   Mostly Cloudy
5:00 PM 72 °F 65 °F 73% 29.88 in 12 mi SE 12.7 mph - -   Mostly Cloudy
5:00 PM 71.6 °F 66.2 °F 83% 29.89 in 6.2 mi SE 12.7 mph - N/A   Mostly Cloudy
6:00 PM 71.6 °F 64.4 °F 78% 29.89 in 6.2 mi SE 12.7 mph - N/A   Mostly Cloudy
7:00 PM 69.8 °F 64.4 °F 83% 29.92 in 6.2 mi ESE 9.2 mph - N/A   Mostly Cloudy
8:00 PM 69 °F 65 °F 81% 29.95 in 12 mi ESE 8.1 mph - -   Mostly Cloudy
8:00 PM 69.8 °F 64.4 °F 83% 29.95 in 6.2 mi ESE 8.1 mph - N/A   Mostly Cloudy
9:00 PM 68.0 °F 64.4 °F 88% 29.95 in 6.2 mi ESE 3.5 mph - N/A   Mostly Cloudy
10:00 PM 68.0 °F 64.4 °F 88% 29.98 in 6.2 mi SW 2.3 mph - N/A   Mostly Cloudy
11:00 PM 68.0 °F 64.4 °F 88% 29.98 in 5.6 mi Variable 1.2 mph - N/A   Mostly Cloudy